RH
74 74 62 69 84 80 74 80 89 92 82 89 94 100 100 90 70 62 54 46 53 58 66 69 63 66 53 46 45 60 50 71 97 80 62 58 62 70 69 86 78 91 94 69
66 51 33 51 79 71 75 86 92 85 92 98 100 93 78 74 84 66 56 56 47 50 56 63 54 56 45 44 45 61 54 78 93 81 71 58 69 64 63 63 76 84 91 65
78 61 38 41 86 81 81 94 97 74 91 91 88 87 91 83 64 62 55 50 44 50 51 50 58 68 50 49 54 48 47 74 80 86 79 79 86 75 67 71 97 78 76 65
70 48 42 33 87 79 79 90 91 80 95 88 84 87 81 68 68 55 51 53 48 51 58 57 65 65 60 51 57 53 61 88 92 80 75 77 77 76 73 84 78 97 68 71
42 12 26 27 85 84 82 91 99 97 90 69 77 68 71 70 66 70 59 56 54 63 70 65 64 63 66 67 64 62 66 98 96 98 76 81 91 78 72 72 71 78 81 84
22 13 10 23 43 90 100 100 97 100 88 67 66 65 70 64 64 62 62 54 60 80 76 68 63 56 55 55 69 71 81 96 98 96 74 85 93 79 70 78 80 82 97 77
23 18 15 9 23 42 98 100 99 99 91 71 64 55 54 59 67 70 62 55 68 74 66 63 62 60 59 59 63 64 95 99 99 99 89 90 68 71 70 84 73 74 77 65
88 30 25 41 8 22 52 99 99 99 99 91 64 51 52 67 63 66 70 70 73 69 67 79 79 84 68 62 67 76 76 94 100 100 96 74 63 75 78 86 74 64 66 71
99 97 74 43 74 11 26 96 96 100 99 88 87 77 53 76 75 72 77 72 66 69 83 86 81 73 80 91 90 71 82 83 99 98 99 96 60 59 63 70 87 56 65 77
97 100 98 96 81 57 26 76 69 95 100 94 83 83 72 56 63 81 77 84 79 80 88 94 87 87 68 91 91 95 95 99 98 98 98 82 60 52 64 88 65 62 60 74
91 99 96 90 96 90 63 52 90 87 96 80 78 81 88 89 59 70 79 80 83 90 96 92 90 88 78 76 74 86 88 94 96 97 99 93 46 60 69 56 57 60 62 69
96 96 93 90 91 90 87 74 76 89 91 65 79 81 77 85 88 83 74 77 77 74 92 91 89 88 87 87 90 61 76 71 78 79 76 49 46 49 52 55 59 61 65 70
88 93 99 98 88 84 88 90 76 98 97 80 80 57 62 75 78 84 74 76 75 76 76 88 88 94 84 90 93 77 62 52 63 65 56 54 52 54 54 57 59 64 70 71
90 95 94 86 90 84 87 100 82 87 99 99 85 89 92 72 72 73 70 70 75 76 75 89 92 92 81 75 85 89 74 67 70 76 64 58 56 56 57 58 65 74 71 71
98 97 90 88 88 87 79 85 74 70 93 98 97 99 100 90 71 68 66 70 71 81 94 97 94 85 88 80 80 86 67 72 80 82 56 58 58 57 60 60 63 69 69 71
87 98 97 87 98 99 99 86 95 85 97 90 99 100 99 92 81 74 78 82 87 86 85 93 87 83 83 90 93 63 55 56 54 56 54 54 56 57 58 59 62 67 68 67
98 99 97 93 92 99 98 79 96 100 99 99 99 100 100 100 100 99 97 93 91 90 91 98 90 86 84 97 89 65 60 63 64 63 59 60 59 58 59 60 62 66 68 70
65 92 76 80 91 89 89 84 83 94 98 99 99 100 99 98 100 99 99 100 99 97 93 96 97 90 92 96 79 73 76 71 67 65 64 60 58 61 62 63 63 67 69 69
32 67 78 92 93 89 93 97 88 93 99 98 99 100 100 100 98 99 99 95 99 90 96 95 94 92 99 86 84 80 72 72 76 70 67 66 66 67 66 64 66 67 70 71
60 78 96 90 97 95 96 99 99 99 99 99 100 89 99 91 92 100 96 99 97 100 96 96 99 97 78 63 59 60 63 59 65 81 72 69 71 71 69 66 65 66 71 71
66 99 98 89 97 99 100 99 99 99 100 100 98 87 91 89 91 97 93 100 100 100 95 92 99 95 71 68 72 79 82 83 78 79 79 79 72 69 70 70 67 68 71 86
62 99 98 98 99 100 100 98 100 100 100 99 96 94 91 88 87 89 94 100 99 98 85 94 88 92 78 76 77 85 89 85 82 80 76 77 74 67 71 69 67 67 73 72
97 98 100 99 99 99 99 97 99 98 99 100 99 99 93 89 90 96 94 96 97 85 96 88 90 87 84 80 83 85 88 85 82 80 77 74 68 70 73 71 68 67 70 82
98 94 95 98 95 86 95 98 99 99 100 99 100 98 97 92 96 94 85 89 85 89 98 92 99 94 88 83 83 88 90 86 83 80 76 72 71 84 85 82 72 66 71 88
95 96 95 95 88 92 96 96 100 99 100 99 100 98 91 99 100 90 96 94 91 78 88 99 97 92 85 81 81 84 87 88 82 84 75 77 83 89 94 91 83 80 95 71
95 95 98 88 96 96 90 92 100 99 99 99 100 100 99 99 88 97 89 85 86 96 100 97 93 89 88 84 77 78 81 85 86 82 78 76 74 79 87 90 85 86 78 65
91 93 86 93 96 92 87 84 87 85 95 100 100 99 95 99 99 96 84 95 100 99 99 91 90 92 92 92 89 76 74 78 81 83 81 79 78 78 79 80 78 73 68 59
Wind_Speed
31 32 32 32 21 12 9 10 3 6 7 3 1 2 2 3 6 4 3 5 7 10 10 5 6 8 1 20 15 7 4 4 3 9 6 8 4 5 5 3 5 4 2 9
27 30 29 30 17 14 12 5 3 8 10 3 3 5 1 5 7 5 4 6 5 13 6 5 4 5 3 18 8 9 5 1 0 4 3 2 4 7 6 8 0 13 4 8
27 28 29 29 19 9 7 3 2 5 5 3 2 4 4 4 8 4 6 5 13 5 4 2 7 3 2 6 5 13 12 4 6 5 3 4 3 5 6 9 5 10 16 26
26 26 28 28 20 9 3 5 1 3 2 2 2 2 3 3 3 5 7 6 4 6 3 4 4 5 4 4 3 4 3 2 2 6 8 5 7 10 11 11 16 11 24 22
26 26 26 26 24 7 12 4 4 9 6 3 2 2 2 3 3 5 4 5 7 8 4 1 5 7 4 4 2 3 2 2 1 6 10 8 6 11 14 15 18 19 23 27
24 25 24 23 23 19 8 6 5 3 8 2 1 3 4 1 2 4 4 3 5 6 3 6 7 8 6 9 7 6 5 4 1 4 5 7 3 6 10 5 8 9 9 14
19 22 23 21 18 18 11 10 5 4 4 1 3 1 3 2 3 3 2 6 4 3 2 2 1 0 2 9 7 10 5 4 1 3 5 1 1 5 7 9 11 10 11 14
19 16 19 20 17 13 12 8 4 1 3 7 7 3 2 5 6 2 3 4 4 2 1 2 2 1 2 4 6 8 5 4 2 2 2 6 3 4 5 5 7 4 6 8
18 18 16 16 18 14 9 5 6 2 3 2 7 4 6 4 2 1 2 3 2 1 1 1 3 3 1 3 3 5 7 4 3 1 2 3 3 2 5 4 4 4 6 5
19 17 16 16 15 17 12 5 10 6 5 9 4 3 3 7 5 3 3 3 2 2 2 2 3 2 3 4 7 4 4 3 5 4 3 6 7 4 9 2 4 1 3 3
14 17 16 16 15 17 15 9 7 9 6 22 15 11 5 7 2 3 5 4 2 1 2 2 1 1 2 0 4 6 6 6 4 3 4 7 6 4 3 5 3 4 2 2
16 17 17 16 15 15 16 14 10 11 11 13 14 17 16 15 4 4 9 1 3 6 3 1 1 1 1 1 2 3 3 6 4 7 5 8 5 8 7 7 9 6 3 6
17 16 17 17 15 16 15 17 14 11 9 21 19 23 19 17 13 5 5 3 4 3 3 3 2 2 1 2 4 2 3 2 3 1 5 4 4 0 5 8 6 4 4 8
22 17 16 16 17 17 15 19 14 12 8 5 9 8 15 20 19 14 6 2 7 8 4 3 2 1 3 3 3 2 5 6 2 5 9 3 1 3 6 5 2 1 5 9
23 20 18 18 20 21 21 19 20 17 15 5 13 15 14 18 20 17 12 9 9 6 3 2 3 2 1 3 3 4 5 6 4 5 6 3 3 6 5 4 2 3 6 11
24 20 23 22 21 21 17 6 8 12 19 4 4 6 15 16 16 15 12 12 8 5 4 3 3 3 4 3 3 6 12 17 21 10 12 11 7 5 4 3 3 5 8 9
21 23 22 16 12 9 9 4 5 8 23 5 4 3 9 17 18 12 12 12 6 5 3 3 3 5 8 2 5 4 17 25 28 24 15 7 9 6 3 3 5 8 10 11
24 22 6 6 2 2 3 15 19 13 4 6 3 1 5 16 6 5 7 7 6 6 3 3 3 2 4 4 7 16 20 20 8 10 8 14 9 7 6 6 8 12 14 15
20 4 2 2 1 1 3 3 8 15 9 5 4 1 3 8 5 6 6 6 2 7 3 3 5 2 4 4 12 16 19 15 16 14 8 7 9 9 10 11 14 15 17 17
7 0 1 1 2 3 5 5 3 5 6 6 3 2 2 5 4 3 6 4 2 2 3 4 2 3 4 18 20 20 22 20 14 13 13 11 12 13 14 17 16 16 18 20
6 4 1 4 5 2 3 3 4 5 3 5 4 5 3 2 2 3 1 2 1 2 2 2 2 1 6 23 23 21 19 17 15 15 18 15 13 13 16 18 18 18 20 20
8 9 6 3 3 4 2 2 2 2 1 3 2 3 4 3 2 3 1 2 1 3 1 1 2 2 18 22 24 24 19 17 13 10 10 12 13 10 14 17 19 19 21 21
2 1 2 2 2 3 3 2 2 1 6 6 3 1 1 2 2 3 2 2 2 2 1 2 1 9 19 22 22 22 16 13 10 7 7 8 8 9 14 19 19 20 21 21
0 0 3 3 2 4 2 1 1 1 2 6 4 2 1 2 3 1 3 1 2 1 1 2 1 17 20 19 20 21 19 14 12 9 4 2 5 8 11 14 16 19 21 21
2 2 3 4 4 2 2 2 1 0 2 3 1 1 0 1 1 0 2 1 3 3 3 1 10 15 18 20 21 20 19 15 11 9 6 1 5 7 10 13 16 20 20 24
3 5 3 5 2 2 2 6 4 1 2 1 0 0 1 2 2 2 4 2 4 2 1 4 12 12 16 20 21 19 17 15 12 9 6 3 4 7 10 12 16 17 20 24
3 5 8 8 4 1 4 2 2 3 1 1 1 3 3 1 2 2 2 2 2 1 3 8 10 10 13 18 20 19 17 15 13 11 8 5 4 7 10 14 16 17 20 23
Wind_Direction
355 4 7 12 22 48 60 50 59 41 31 63 17 344 303 320 243 329 24 142 106 152 169 134 181 184 243 188 170 185 165 122 191 222 226 192 164 184 175 152 262 237 200 271
357 6 11 12 16 14 67 60 337 18 11 48 21 286 333 17 2 347 17 40 128 139 169 131 186 101 47 180 156 158 161 258 349 328 25 192 188 208 208 221 255 245 266 265
3 6 10 12 14 10 39 50 25 351 11 74 103 46 6 343 340 6 14 70 119 143 153 156 161 105 63 119 101 174 147 161 172 197 200 106 237 229 211 203 237 269 247 278
8 7 9 13 23 26 75 29 14 350 301 289 202 214 231 348 51 15 20 21 104 141 94 85 108 96 89 66 105 74 100 156 319 278 264 228 222 236 236 237 250 252 278 278
8 13 8 15 22 36 63 50 6 344 288 186 298 171 249 344 31 27 0 93 71 54 87 28 149 127 165 185 148 123 95 253 318 283 260 241 248 246 243 244 252 255 264 275
2 10 15 10 24 32 61 56 5 314 284 292 7 231 186 250 100 8 47 77 94 70 44 50 61 84 87 149 147 163 162 151 167 265 329 323 283 237 230 215 226 245 264 276
358 1 9 16 14 25 27 19 24 344 288 10 240 81 101 112 14 127 355 51 87 148 92 25 39 11 130 156 169 151 140 136 212 284 339 319 228 201 194 216 260 253 260 278
345 357 357 4 12 8 15 7 7 27 289 305 290 131 142 116 105 93 86 55 100 152 60 87 128 216 166 227 169 156 140 151 218 261 248 274 253 210 206 190 286 233 267 292
336 344 353 353 355 2 358 317 340 283 296 199 322 305 200 176 194 347 133 151 182 141 103 116 188 188 100 148 121 179 147 148 189 226 277 258 261 234 147 121 264 199 230 282
333 335 342 344 348 346 354 323 337 309 269 270 293 304 296 192 185 164 144 184 166 187 148 178 192 243 162 174 174 172 173 187 212 213 257 279 254 255 155 293 250 259 273 320
318 323 330 333 335 336 338 339 326 338 278 269 259 255 282 329 147 157 151 99 255 107 174 184 289 145 252 324 162 168 177 170 195 178 217 266 216 136 213 238 309 324 282 223
321 319 326 320 316 316 321 319 311 304 276 270 260 256 249 241 222 330 181 230 144 180 109 133 109 353 351 13 268 223 200 194 187 191 213 237 244 253 276 301 303 298 252 198
320 312 312 309 305 303 297 299 311 306 288 289 268 251 228 226 210 182 206 176 175 159 119 139 97 234 264 245 238 297 290 236 238 247 278 257 259 173 334 326 321 303 236 197
324 314 310 304 298 293 281 279 292 273 271 269 278 216 223 211 211 208 211 137 167 154 156 118 149 213 185 251 279 219 236 343 307 280 285 334 174 347 337 329 328 234 183 189
322 313 308 305 300 293 285 277 278 256 227 303 298 303 201 201 207 216 223 200 179 164 144 149 207 218 182 226 245 239 207 213 200 231 278 262 278 319 314 296 261 173 186 163
321 317 307 305 298 293 263 287 259 236 214 256 266 267 174 180 183 188 185 182 185 181 175 197 216 212 186 260 250 249 255 270 263 256 275 282 284 287 296 272 208 176 173 167
320 312 311 309 303 286 215 225 256 199 193 227 250 211 132 152 148 154 171 188 198 202 199 218 218 214 200 238 262 279 295 291 291 286 294 257 256 259 254 253 191 172 163 160
321 317 305 360 2 30 248 240 262 280 250 248 271 213 121 156 131 126 158 166 179 204 220 195 208 209 214 257 260 304 315 341 334 327 287 252 251 241 235 221 193 172 162 162
333 341 259 323 185 229 239 175 242 253 236 288 272 99 118 146 121 121 151 165 167 193 206 223 169 206 227 255 330 325 329 329 315 310 299 259 267 256 226 205 191 185 170 168
344 310 68 271 273 282 233 247 215 215 226 232 258 296 89 147 127 159 141 182 181 203 205 159 203 249 281 4 339 327 322 315 311 283 267 263 248 243 222 211 205 198 179 174
3 18 334 276 276 225 238 244 212 210 235 223 268 47 118 109 135 132 129 158 153 193 218 200 237 188 344 344 344 341 333 325 306 280 261 264 285 286 229 206 203 199 191 188
337 317 314 290 247 232 238 239 242 236 292 347 13 16 64 109 110 102 151 130 68 224 98 174 245 70 349 351 348 348 346 343 341 332 286 253 264 264 219 206 200 198 197 185
350 320 288 284 227 253 221 224 225 166 350 350 15 8 78 110 107 70 97 153 201 142 143 221 144 341 350 353 352 354 1 359 359 333 285 262 248 237 210 197 198 197 190 187
126 38 275 206 207 246 223 190 174 285 336 359 358 33 76 54 69 119 152 166 93 198 231 229 338 343 346 350 357 1 4 10 2 346 345 271 240 220 202 206 200 193 190 190
219 181 236 213 272 297 316 289 243 250 334 15 355 348 47 34 117 95 110 97 218 216 200 103 342 350 360 1 0 1 4 5 1 354 353 298 213 226 203 197 199 200 201 193
237 232 265 233 292 244 292 294 257 250 358 116 230 349 71 230 157 152 203 197 222 145 141 338 347 358 6 6 6 2 1 0 354 347 340 315 249 231 226 211 208 211 207 201
232 246 245 258 278 256 206 265 263 295 240 186 151 197 180 345 153 221 210 207 102 108 317 347 355 354 2 359 1 4 3 0 357 349 339 318 269 235 221 214 207 205 204 204